RH
7 5 4 3 4 5 5 6 6 6 7 7 7 7 9 14 16 13 11 10 11 16 25 31 32 34 42 49 50 49 47 42 39 41 43 41 38 36 36 38 38 37 39 35 29 28 25 22 23 21 21 35 54 70 79 74 62 49 34 32 42 38 30 33 31 22 19 27 34 36 41 43 34 29 30 31 35 39 38 40 42 40 43 42 40 44 36
7 6 5 3 3 4 5 6 6 6 6 6 7 7 9 12 11 11 11 8 12 22 26 25 29 35 41 44 42 42 47 46 40 43 46 44 40 35 35 40 41 40 43 38 30 30 27 23 27 23 20 42 65 68 70 67 56 49 46 44 45 37 26 28 30 25 23 23 23 26 35 37 24 20 29 37 47 58 55 46 44 46 43 37 39 43 31
7 6 6 4 4 3 4 5 5 5 7 6 6 6 8 10 10 10 10 7 12 24 28 26 28 33 36 35 33 34 39 40 40 45 49 46 43 39 36 41 43 43 45 40 33 34 28 21 27 28 23 42 67 67 60 64 68 70 65 58 53 40 27 27 30 29 28 25 23 23 26 28 23 23 35 46 58 65 54 41 43 47 41 36 40 42 28
6 6 6 5 4 3 3 4 3 5 6 5 6 6 8 11 14 14 12 8 11 20 24 24 25 28 29 28 29 30 31 33 36 41 44 42 43 44 40 39 40 38 39 37 29 32 34 29 31 34 27 34 58 64 59 67 79 77 67 60 54 43 35 32 30 29 30 29 28 26 25 28 32 36 41 49 63 68 52 42 45 42 38 37 36 35 33
4 5 6 5 5 4 3 3 3 4 5 5 5 5 7 13 20 23 19 16 17 18 22 28 30 27 24 26 32 31 28 30 32 35 38 37 40 45 40 36 37 34 34 33 25 28 35 32 33 40 37 36 46 56 63 73 76 70 66 63 54 43 40 40 42 40 34 31 30 28 29 31 32 38 42 44 59 73 64 51 45 39 41 42 31 28 35
2 4 5 5 5 4 3 3 3 4 4 4 4 5 9 14 19 22 22 24 26 21 22 32 36 32 28 30 34 30 27 32 32 32 34 32 35 38 32 32 38 37 39 37 28 27 29 29 39 46 42 40 41 47 63 73 68 63 63 61 55 45 40 49 60 55 39 32 32 30 31 31 28 34 38 36 46 68 75 64 50 43 46 43 31 29 34
2 3 4 5 4 4 4 3 3 3 3 4 3 5 10 13 15 17 18 24 28 23 22 27 32 33 29 27 32 33 30 33 37 37 36 31 32 32 28 32 37 39 44 40 29 30 30 33 47 51 45 45 41 37 48 57 58 55 53 55 54 42 40 57 69 61 46 38 34 31 31 31 30 32 34 31 32 47 63 62 48 43 46 41 34 36 35
1 2 3 4 4 4 4 4 3 3 3 3 3 5 7 10 12 14 15 18 22 21 20 22 24 25 22 22 31 37 34 34 40 43 39 32 32 34 34 38 40 44 49 42 34 39 41 38 45 49 48 48 40 32 33 40 47 49 47 51 48 36 40 57 59 52 45 36 30 30 29 27 30 31 29 29 26 29 40 45 42 44 48 42 37 41 38
1 2 2 2 3 3 4 4 4 4 3 3 3 4 6 7 8 9 12 17 21 19 18 21 21 21 22 26 32 36 37 41 44 43 38 36 39 42 45 47 45 44 46 43 40 46 49 49 52 54 51 47 42 39 37 38 45 48 49 53 47 36 38 44 44 46 42 29 25 28 28 29 36 38 32 27 26 28 31 35 39 44 48 46 44 44 37
2 2 2 2 2 2 3 3 3 4 3 3 4 5 5 6 7 6 9 16 21 20 18 20 19 20 27 35 37 36 39 47 47 36 29 35 41 42 49 54 45 35 37 42 43 46 52 58 60 59 61 61 57 52 50 51 52 51 51 53 51 47 43 39 40 45 39 28 28 31 30 29 29 31 32 28 26 29 28 30 36 38 38 42 43 37 28
3 3 2 2 2 1 2 2 2 3 3 2 4 5 5 6 6 5 10 17 21 21 20 18 17 22 31 38 39 38 39 45 46 34 27 35 39 34 42 53 43 31 34 40 42 45 50 54 57 61 69 73 68 61 61 62 59 54 51 50 52 56 51 41 39 42 40 35 34 33 28 21 17 20 27 27 26 29 30 31 33 31 29 31 31 26 22
3 3 3 2 2 2 2 2 2 3 3 3 4 4 4 5 4 4 11 19 20 20 21 21 24 31 34 35 37 38 38 40 40 34 33 40 39 31 37 49 43 34 37 39 40 48 52 52 57 65 71 73 68 65 67 63 57 56 54 49 51 53 49 42 40 44 44 39 39 39 28 17 16 20 21 24 26 29 33 34 31 28 28 28 28 27 27
4 3 3 3 3 3 2 2 2 2 3 3 3 4 4 4 3 3 8 16 21 21 21 23 27 30 30 31 35 34 31 30 29 31 35 39 39 36 37 40 39 38 40 39 42 50 49 42 42 50 57 59 57 61 69 66 58 56 55 52 51 50 48 46 42 44 43 38 41 43 31 20 21 22 23 30 34 32 35 39 35 28 27 28 29 30 29
4 3 3 3 3 3 3 2 3 2 3 3 3 3 4 3 4 4 5 13 22 22 22 24 24 25 26 28 31 29 25 24 25 28 31 31 32 35 36 35 36 38 39 38 40 42 35 25 24 28 33 35 34 41 55 61 61 60 56 52 50 47 46 47 44 42 41 40 41 39 34 30 26 23 26 29 28 27 34 45 42 29 24 29 31 30 30
4 3 3 3 3 3 3 2 3 3 3 3 3 3 4 4 5 5 3 10 19 23 25 25 20 22 27 27 26 27 25 24 26 27 27 25 23 28 35 38 37 36 36 37 36 31 25 23 26 26 25 24 24 27 31 39 54 66 63 54 50 47 44 45 47 41 37 42 47 46 43 35 23 22 29 30 28 30 36 47 47 33 26 30 32 31 33
4 3 3 3 3 3 3 2 3 2 2 3 3 3 4 4 5 6 4 8 19 25 27 23 18 21 27 26 26 29 27 26 28 24 23 25 24 26 35 40 36 33 35 36 33 27 23 24 27 27 26 26 27 28 25 23 36 57 66 60 56 52 46 46 53 51 45 50 53 50 47 38 23 22 31 36 38 38 40 47 46 33 29 32 31 32 36
4 4 3 4 3 3 3 2 2 3 2 3 3 3 4 5 6 8 5 6 17 26 25 21 19 22 26 26 28 30 30 31 30 24 23 29 29 30 38 40 34 33 35 33 30 27 26 26 26 28 28 25 25 29 30 25 26 39 51 53 56 59 54 51 57 57 52 54 54 46 39 33 26 25 30 36 39 39 44 51 44 31 31 33 32 36 39
5 4 4 4 3 3 3 2 2 3 2 3 4 3 5 6 8 9 6 6 17 28 27 22 24 28 30 31 31 33 35 36 33 28 27 30 33 37 42 39 34 35 36 32 30 29 29 28 29 31 31 28 28 30 30 29 29 28 27 29 40 52 54 52 55 54 50 52 55 49 37 31 28 27 28 34 39 41 46 47 36 28 30 31 34 40 42
5 5 4 4 4 3 3 2 2 3 2 3 4 4 5 7 8 9 8 7 15 27 29 27 29 33 34 34 35 36 39 41 38 33 30 31 37 43 42 36 37 38 33 30 31 32 30 28 28 32 35 31 29 29 29 29 28 24 22 26 35 44 47 48 51 51 46 44 49 49 40 29 26 27 29 35 42 43 38 32 27 29 34 36 41 46 46
5 5 4 4 4 3 4 3 2 2 2 3 4 5 5 7 7 9 10 8 12 25 34 34 36 39 39 41 44 44 44 45 43 39 37 38 43 44 37 33 38 39 34 33 34 33 33 31 29 32 37 34 29 30 34 34 28 24 28 34 35 35 38 39 38 38 38 39 45 48 40 28 27 31 33 33 35 34 33 35 37 40 44 47 50 51 52
5 5 4 4 4 4 4 3 3 3 2 2 5 6 6 7 8 9 11 11 13 25 38 41 43 46 46 47 47 47 47 48 47 46 46 45 44 42 38 37 40 38 36 38 37 34 34 35 33 34 36 34 31 32 36 39 36 30 30 35 36 35 34 31 28 28 33 39 41 36 27 22 24 27 28 31 36 42 49 54 53 52 54 56 57 56 58
5 5 4 4 4 4 4 3 3 3 2 2 4 6 8 9 9 10 14 13 11 21 36 45 48 50 49 49 49 48 47 49 48 48 48 48 46 44 43 44 44 42 39 39 38 36 35 36 37 38 38 36 35 36 36 40 40 34 30 33 35 31 30 32 31 30 32 34 32 25 22 25 28 30 36 46 53 57 59 59 58 58 59 61 61 61 62
5 5 5 5 4 4 4 3 3 3 3 3 4 6 9 11 10 13 15 12 11 23 38 46 49 50 48 49 51 51 50 50 49 47 45 45 45 47 46 45 44 44 42 42 41 40 39 39 39 40 41 40 39 40 39 39 39 36 34 33 28 26 30 34 34 33 33 30 26 27 34 41 41 44 52 59 60 59 58 57 58 60 60 62 63 64 65
4 4 4 4 4 4 4 3 3 3 3 3 4 5 8 11 12 15 17 14 15 29 42 46 47 49 49 48 50 51 49 48 46 44 43 42 43 46 46 43 44 47 47 47 47 46 46 44 42 45 48 44 38 39 41 40 36 34 35 34 30 31 36 35 33 36 38 34 32 39 49 52 50 53 59 58 54 55 57 58 59 59 58 60 62 62 64
4 4 4 4 4 4 4 4 3 3 2 3 4 4 6 9 11 14 16 15 16 26 40 47 47 48 49 49 49 48 47 45 42 39 37 36 38 41 42 40 45 50 51 52 54 56 55 50 46 50 54 48 39 37 38 36 33 33 36 39 37 38 40 40 40 40 38 37 41 47 51 51 49 52 56 55 53 55 57 58 58 57 56 57 58 59 59
4 4 4 4 4 4 4 4 3 3 3 2 3 4 4 6 7 9 12 14 14 18 31 43 46 47 50 51 48 44 39 36 34 32 31 30 32 35 38 43 47 51 53 57 61 63 61 55 50 52 53 48 44 42 38 36 36 37 40 43 42 42 46 48 49 50 48 47 48 49 50 50 46 46 50 52 53 55 54 53 53 53 53 54 54 52 52
4 4 4 4 4 4 4 4 3 3 3 3 3 4 4 5 6 6 8 12 13 15 26 39 45 47 48 47 43 37 31 26 25 25 26 29 30 29 33 41 49 53 57 62 64 64 63 58 54 53 52 49 48 48 45 44 44 44 47 50 50 54 58 57 60 69 69 58 49 48 54 54 47 46 49 50 48 49 50 50 52 52 52 52 53 53 54
4 4 3 4 4 4 4 4 3 3 4 3 2 3 5 6 6 6 6 8 10 13 22 35 41 42 43 44 39 33 30 28 24 21 22 27 28 26 27 34 44 53 59 63 65 63 60 57 53 51 50 51 51 49 48 48 47 50 56 57 55 58 59 54 58 67 64 53 47 48 52 51 47 47 48 47 46 47 48 50 52 52 51 53 56 59 61
3 3 4 4 4 4 4 4 4 3 3 4 3 3 5 5 5 7 8 8 9 12 17 27 35 39 43 43 38 32 33 32 24 19 21 24 24 22 23 28 37 46 56 63 66 62 57 55 54 51 51 52 50 46 45 46 47 55 63 59 53 53 53 49 50 53 49 46 48 51 51 53 54 53 48 46 47 48 49 52 54 54 55 58 61 63 64
3 4 4 4 4 5 4 4 4 4 3 4 3 2 3 5 6 7 8 9 11 14 17 25 34 39 41 40 33 30 31 28 21 17 21 23 22 22 23 26 32 43 55 65 68 65 60 58 58 58 57 55 52 49 48 47 46 52 59 57 52 53 52 50 48 48 46 46 48 49 51 55 56 53 49 48 49 50 53 56 57 58 60 63 65 65 65
3 4 5 5 5 5 5 4 4 4 3 4 4 3 4 7 7 8 10 11 11 14 18 24 31 36 38 35 30 28 27 23 18 17 20 23 22 21 22 26 33 43 57 68 73 71 66 62 59 58 58 58 55 54 53 52 52 55 57 57 55 53 51 52 52 50 49 49 50 50 51 51 51 51 50 51 52 54 57 59 59 60 61 61 62 65 66
4 4 5 5 5 5 5 4 5 4 4 5 5 5 7 8 9 10 11 13 13 15 17 22 27 33 35 32 28 27 25 20 17 18 20 23 22 20 21 27 34 42 54 67 75 75 71 68 64 60 61 64 61 54 51 56 62 62 58 56 54 51 51 53 52 49 48 49 50 53 53 52 52 54 54 55 56 57 58 59 59 60 62 62 61 63 65
5 5 5 5 5 5 5 5 4 4 5 6 6 8 9 10 12 14 14 15 16 15 15 21 30 34 32 28 28 28 23 20 23 27 24 21 22 25 27 31 39 47 53 61 69 70 66 66 65 63 64 67 62 55 56 60 63 61 56 53 51 50 51 50 48 47 49 51 52 55 56 54 54 55 55 57 59 58 58 60 61 63 65 65 63 63 64
5 5 5 6 5 5 5 6 6 6 7 7 9 11 13 14 17 18 18 18 19 17 16 23 31 33 28 26 30 31 25 25 34 39 33 24 23 28 36 44 51 54 52 54 60 63 60 61 62 61 62 65 64 62 63 61 58 58 56 52 49 49 50 51 50 50 52 53 54 56 57 56 56 57 57 58 59 59 60 62 64 66 67 66 64 65 66
5 6 6 6 6 6 7 7 7 8 9 11 13 15 18 20 23 23 21 20 20 22 26 30 33 35 35 33 32 30 26 30 38 39 33 30 28 30 41 54 58 53 51 55 59 58 57 61 63 59 57 61 66 68 65 60 57 57 54 51 51 52 53 54 53 53 53 54 55 56 56 55 56 57 57 58 59 60 62 64 66 68 68 69 69 70 71
6 7 7 7 7 7 7 8 9 10 12 15 17 20 23 25 26 26 25 24 23 27 35 41 44 47 47 43 40 36 33 37 42 38 33 36 37 36 44 56 57 54 58 64 65 61 59 61 60 53 50 55 63 66 64 59 56 55 53 53 55 55 53 52 52 53 54 54 53 54 55 55 56 57 58 59 61 63 65 68 70 70 71 73 73 74 77
7 7 8 8 8 7 8 10 11 13 16 21 24 26 28 29 29 29 29 28 26 27 34 43 55 64 64 58 52 46 41 43 46 42 38 41 41 40 48 57 59 58 58 58 62 66 67 65 60 53 51 58 64 65 61 58 58 58 58 58 55 52 51 52 52 54 55 54 53 54 56 56 57 60 62 64 65 67 69 71 71 72 74 76 77 78 80
9 9 9 9 9 8 9 11 14 18 23 27 28 30 30 29 29 32 35 34 33 34 38 48 65 77 77 67 52 40 39 48 50 43 41 44 42 42 47 52 55 57 52 44 46 54 60 66 71 68 64 67 69 63 58 58 60 59 57 54 51 50 51 52 54 55 56 55 54 56 57 58 60 63 67 69 70 71 72 73 73 73 74 76 78 80 81
9 9 9 10 10 11 12 15 19 24 29 29 29 30 32 31 32 37 40 42 43 45 47 57 72 78 74 65 52 38 39 51 51 41 40 47 47 46 48 49 51 54 50 42 41 44 46 56 69 71 69 69 66 57 53 55 55 52 50 50 51 52 52 52 53 56 56 56 56 57 58 61 65 69 71 73 73 73 73 73 74 75 75 76 78 81 82
10 11 11 11 12 13 13 16 21 27 31 31 28 27 28 32 40 48 48 47 53 58 56 59 69 70 62 61 64 56 47 47 48 47 52 55 52 51 53 52 53 54 51 45 46 47 46 50 56 57 60 63 59 52 51 51 47 45 47 50 51 52 53 54 54 54 54 55 58 60 62 66 69 71 73 74 75 77 77 76 76 77 77 78 80 82 83
11 12 12 12 13 14 15 18 23 27 28 27 26 32 38 40 44 50 48 44 53 66 65 61 66 66 57 55 65 65 52 43 49 61 68 66 62 63 63 60 61 64 60 51 48 49 51 53 53 54 58 60 55 50 50 49 44 44 50 51 50 51 53 55 55 55 55 57 61 63 66 69 70 72 74 75 76 78 79 79 79 79 79 80 83 85 86
13 12 13 14 14 15 17 19 21 26 29 27 28 40 50 47 41 42 45 47 57 68 68 60 57 55 48 45 50 53 48 46 54 64 69 68 69 74 75 74 76 79 71 56 49 50 52 52 52 54 55 52 48 47 48 46 44 46 50 50 50 51 53 54 55 56 58 61 64 66 69 71 73 74 75 75 76 78 79 80 81 82 83 84 85 86 86
14 13 14 14 14 16 20 20 20 28 37 37 32 34 41 45 44 46 50 55 62 69 68 59 49 44 41 41 43 46 50 55 63 70 70 66 67 75 82 85 85 79 66 55 52 54 54 52 52 51 48 45 44 44 42 41 43 47 49 49 51 53 54 56 57 59 61 63 66 69 71 73 74 74 75 76 77 79 80 80 81 83 85 85 86 87 87
14 14 15 15 15 18 22 22 22 27 37 43 42 36 33 36 41 44 46 51 59 65 63 56 52 53 53 49 48 52 57 61 65 68 65 60 62 72 83 86 79 66 54 51 54 55 52 49 49 47 43 42 43 42 40 41 47 50 51 52 54 55 56 57 59 62 64 66 68 70 72 74 75 75 76 77 78 79 81 81 83 85 86 86 86 87 87
16 16 15 15 16 19 21 24 27 30 38 48 50 43 35 34 39 47 52 52 54 57 55 48 51 62 65 56 51 56 62 62 61 61 61 64 71 75 74 70 65 60 61 68 74 71 58 47 43 42 42 42 43 43 44 48 52 53 55 56 57 58 60 62 64 66 68 70 71 72 74 76 77 78 79 79 80 81 82 83 84 85 85 85 86 87 86
17 19 18 19 22 24 26 31 34 38 49 62 60 50 46 49 52 54 54 48 44 48 51 46 46 59 68 63 56 56 61 64 64 62 63 70 76 73 65 63 67 69 70 72 73 66 54 44 38 37 41 44 46 46 49 52 54 56 59 61 61 61 63 66 68 69 71 72 73 74 75 76 77 78 79 80 81 81 81 81 82 83 84 84 86 87 87
18 21 20 21 25 28 33 41 45 49 59 69 63 52 49 51 48 44 43 41 41 47 49 45 47 59 71 70 62 56 61 73 78 70 62 63 67 66 64 69 76 80 80 75 64 52 43 38 36 38 42 47 49 51 53 55 57 60 62 63 65 67 69 70 71 73 74 74 74 74 75 77 77 78 79 80 80 80 80 80 80 80 81 84 87 89 90
20 23 22 23 28 34 40 48 53 54 55 55 49 42 40 40 39 38 39 42 47 49 48 52 62 70 72 73 70 66 67 74 76 68 63 67 75 78 78 78 78 79 79 75 62 46 35 34 37 41 46 49 51 53 56 59 61 63 65 68 71 73 73 74 75 75 75 74 75 76 76 77 77 78 80 81 80 79 79 78 78 80 83 86 89 90 91
21 25 27 31 37 42 43 44 47 48 45 39 37 37 34 33 37 40 41 44 48 48 49 58 70 72 69 73 78 76 71 71 71 68 69 74 80 86 89 90 86 77 64 52 44 37 34 37 41 45 49 53 54 56 59 61 63 65 68 70 72 74 75 75 76 76 75 76 77 76 76 77 79 80 81 81 81 80 79 79 81 85 87 88 90 90 89
22 24 27 31 36 40 40 39 41 43 40 34 33 35 35 34 39 43 44 46 50 51 52 61 70 75 77 79 76 70 70 77 82 81 76 72 77 86 90 84 72 58 44 35 35 38 41 45 49 50 52 55 57 58 62 65 66 68 70 72 73 74 74 74 76 77 76 76 75 75 76 78 80 81 81 82 82 82 82 83 86 88 87 88 89 89 86
22 25 29 31 31 31 32 32 32 34 35 34 34 35 37 39 42 45 47 50 53 55 59 65 73 77 78 72 62 56 61 72 79 78 70 64 70 81 80 66 50 41 37 37 40 42 45 50 54 55 55 57 59 62 65 67 68 70 71 72 73 74 75 75 76 76 76 74 74 75 78 79 79 80 82 84 84 85 86 89 89 87 85 85 87 89 92
20 24 29 31 28 26 26 28 29 31 33 35 37 38 40 41 42 45 50 56 60 63 67 73 76 75 69 63 62 64 68 74 81 83 74 64 64 67 62 50 42 41 42 45 48 49 51 54 55 55 57 60 62 65 67 69 71 72 72 72 74 76 76 76 75 75 75 76 76 76 78 80 81 84 86 88 89 90 91 89 86 85 86 89 92 94 98
Wind_Speed
16 16 16 15 13 12 12 12 12 13 13 13 14 15 16 14 9 7 9 10 12 14 9 4 5 5 3 3 4 3 2 3 2 3 4 2 2 2 1 1 2 2 2 2 3 3 1 1 3 3 2 1 2 3 4 4 3 3 1 1 2 1 3 4 7 8 4 3 6 5 2 1 2 3 4 3 3 2 4 6 4 5 7 6 6 8 9
15 15 14 14 13 11 10 11 12 14 15 16 18 21 24 23 20 14 7 3 7 8 4 3 5 3 2 3 4 3 4 5 4 3 4 4 2 2 2 2 2 2 2 2 2 4 2 1 1 2 2 1 1 3 2 1 3 3 1 2 4 2 2 4 6 7 5 1 2 2 0 2 4 5 3 3 1 1 1 3 2 4 10 10 8 8 9
14 14 14 13 13 11 9 8 7 8 10 13 17 20 19 16 17 21 17 12 12 10 7 6 6 4 4 4 3 2 3 5 5 3 3 4 2 2 2 2 2 2 1 2 2 2 2 1 1 1 2 1 0 2 2 1 2 4 2 2 3 3 4 3 4 6 7 7 6 5 6 6 7 7 5 3 4 4 2 4 4 5 8 9 8 9 11
15 15 15 14 12 11 10 9 7 6 7 8 8 10 10 7 6 10 16 21 22 18 13 9 6 3 3 3 3 4 2 3 5 3 2 4 3 2 2 2 2 2 1 3 2 1 1 1 2 2 3 1 1 2 3 2 2 3 2 1 2 3 4 4 6 6 6 8 9 10 11 10 10 13 12 5 4 5 3 4 5 6 7 9 10 11 14
16 15 15 15 14 13 11 9 8 7 8 7 6 10 10 7 4 2 5 12 16 15 14 11 5 2 1 1 2 5 3 1 3 3 2 4 4 1 1 2 3 3 5 4 3 3 2 1 1 2 3 2 1 1 3 2 3 2 1 1 1 3 5 3 4 7 10 12 14 14 12 12 14 15 15 10 3 7 5 6 9 8 7 9 12 14 16
17 16 16 15 15 15 13 12 9 7 6 5 6 11 11 7 5 5 5 5 4 6 9 10 8 7 5 2 1 3 4 2 2 2 2 3 4 1 0 4 5 4 5 4 4 7 6 1 0 2 2 2 2 1 1 0 1 1 0 1 1 4 5 0 2 6 12 14 16 16 13 13 15 13 14 16 9 6 8 10 12 9 7 11 15 18 19
18 18 17 16 15 15 15 15 12 9 8 6 10 16 17 14 11 8 10 9 4 4 6 6 7 8 5 3 2 4 4 4 2 1 2 1 3 3 3 5 7 5 3 3 4 7 6 3 1 1 2 3 3 2 1 1 1 0 1 1 0 2 3 1 0 7 11 14 16 13 11 13 14 13 14 16 14 9 9 10 12 12 14 17 18 21 21
20 20 18 18 17 16 17 18 16 14 11 12 17 20 17 15 14 13 17 14 9 7 6 3 5 6 5 3 2 3 3 3 2 1 2 2 3 4 5 7 9 4 2 3 3 5 6 5 4 1 2 3 2 2 2 1 0 2 1 0 0 2 2 3 1 8 10 10 8 6 9 13 14 15 14 13 13 12 8 8 9 10 13 16 17 18 17
21 20 20 20 20 18 19 20 19 15 12 16 23 25 22 21 22 23 20 10 6 6 5 2 3 4 5 3 1 2 3 3 2 1 1 2 3 4 5 8 7 1 2 2 2 4 5 7 8 5 5 5 4 2 3 4 3 2 1 0 1 2 3 1 2 7 9 8 9 11 14 14 12 13 13 12 12 10 7 5 6 8 9 12 13 12 11
21 21 21 21 22 21 20 21 21 18 13 18 26 26 24 23 22 22 20 9 4 4 2 2 3 3 3 3 1 2 2 2 1 1 1 1 2 4 4 6 5 2 1 2 4 9 12 12 13 13 12 11 10 9 7 5 5 3 2 1 1 1 4 4 4 6 9 11 15 16 16 11 6 5 6 9 11 11 9 6 7 10 9 9 9 10 11
21 21 21 21 22 22 21 21 23 21 18 19 23 23 20 20 19 19 18 10 4 5 3 3 4 2 1 1 1 1 1 1 1 1 2 1 2 5 5 4 4 3 3 7 13 18 19 15 14 11 10 9 9 9 8 6 6 6 4 2 1 1 3 4 3 3 9 14 16 14 11 6 4 4 5 8 10 11 11 9 9 11 11 11 12 14 15
21 21 21 21 22 22 22 21 22 24 22 19 19 19 17 16 15 14 13 7 2 3 3 3 2 1 1 1 1 1 1 1 1 1 1 2 3 5 5 2 3 3 6 14 21 20 16 10 5 3 3 4 5 5 5 6 6 6 5 4 2 2 4 4 2 3 7 11 11 9 7 6 9 12 8 5 6 8 11 14 15 14 14 15 16 14 13
20 20 20 21 22 23 23 22 22 24 23 18 16 18 16 12 12 16 18 12 3 2 5 4 2 2 2 1 1 1 2 2 1 2 2 3 3 4 4 3 5 7 12 18 19 13 8 4 1 2 3 3 3 3 5 7 6 5 6 6 4 4 4 3 3 4 6 7 5 5 7 12 18 17 6 1 2 6 10 13 14 13 14 14 12 11 13
20 20 20 21 22 22 22 23 23 24 23 19 17 18 16 12 10 11 14 12 3 1 6 5 2 2 2 1 1 1 1 2 1 2 2 3 3 2 5 8 9 10 13 16 12 5 3 3 3 3 1 2 2 1 2 5 6 5 5 6 6 5 3 3 4 4 4 5 6 8 10 13 13 8 0 3 0 3 5 9 12 14 12 7 6 11 15
19 19 20 21 22 22 22 23 23 23 23 20 17 18 16 14 12 11 14 17 11 4 2 2 3 5 3 2 1 1 1 0 1 2 3 3 2 2 6 11 11 11 13 12 6 2 2 3 4 5 4 3 3 2 2 2 3 4 4 4 6 7 5 3 4 3 3 5 7 7 8 8 7 3 5 5 2 1 1 6 11 9 4 4 8 14 16
18 19 20 21 21 21 21 22 23 22 22 19 16 16 16 15 14 11 10 14 11 4 2 4 6 7 4 2 3 2 1 1 2 2 2 1 1 3 9 12 10 11 14 9 2 2 3 2 2 4 4 3 3 5 6 5 2 2 3 3 5 7 5 3 4 5 5 5 6 6 4 7 10 7 4 6 3 1 2 7 8 1 3 8 12 14 17
17 18 20 20 20 20 19 20 21 21 20 18 15 14 16 16 14 10 8 12 12 7 5 7 6 5 3 1 2 2 1 2 3 2 1 2 3 4 11 13 9 10 13 7 2 2 3 1 2 4 3 1 2 5 5 6 5 3 2 3 4 5 4 4 6 7 6 5 6 6 5 9 13 11 5 4 2 0 4 9 5 5 14 21 16 16 20
16 17 18 19 19 18 17 17 19 19 18 17 14 14 16 15 13 10 9 13 14 7 6 8 6 3 2 1 1 1 1 2 2 2 2 2 3 6 11 10 7 8 10 6 3 3 3 1 2 3 3 1 0 3 4 4 5 6 5 6 5 3 3 4 5 6 6 7 7 6 6 10 11 9 6 2 1 3 5 9 11 18 28 29 23 21 22
15 16 16 17 17 16 16 15 15 16 17 16 14 14 16 15 13 11 8 10 13 10 8 8 7 5 5 4 2 2 2 3 3 4 2 1 5 11 9 3 5 7 6 4 2 2 2 2 0 2 4 2 1 3 5 3 4 6 8 8 6 2 2 3 4 4 5 5 5 6 8 6 4 4 3 2 3 6 9 18 26 30 30 28 26 26 26
15 14 15 15 15 15 15 14 13 13 15 16 14 12 14 13 12 11 9 10 16 18 12 9 8 7 6 5 3 3 4 4 5 5 4 3 10 13 5 1 6 7 4 4 3 1 2 3 1 1 3 3 1 2 5 6 7 7 6 6 4 2 2 4 4 3 4 5 5 6 5 2 6 5 4 2 7 15 21 27 31 29 28 29 29 28 29
14 14 15 15 14 14 14 13 13 13 12 14 14 11 12 12 12 12 11 8 11 15 12 10 9 7 6 6 6 5 4 5 5 5 5 5 9 9 2 1 6 6 2 4 4 1 1 3 2 1 3 3 2 2 5 7 7 5 4 4 3 2 2 6 5 3 5 6 4 6 11 13 17 18 13 13 20 27 30 29 26 25 28 29 27 26 29
13 14 15 15 14 14 14 13 13 13 12 12 12 10 9 10 11 13 12 7 8 13 13 11 10 8 6 7 6 6 6 6 6 7 6 5 6 7 3 1 3 3 2 2 3 2 2 2 2 3 4 4 3 5 6 6 6 3 1 1 3 4 3 3 5 4 6 9 11 15 23 28 31 26 23 27 31 32 33 30 27 26 27 26 26 27 29
13 14 14 15 15 15 14 14 13 13 12 11 11 10 8 8 9 11 10 8 10 16 15 11 9 8 7 7 6 6 7 7 7 8 8 5 4 5 3 1 2 3 3 3 4 4 4 4 3 4 5 3 3 5 6 6 6 4 3 5 7 5 1 2 4 6 10 14 17 19 23 31 34 29 28 31 30 30 32 31 27 27 28 28 28 30 31
13 13 14 14 14 14 14 14 14 13 12 11 11 11 10 8 8 8 7 6 9 12 11 7 6 6 5 6 6 6 7 8 8 9 9 7 4 2 2 3 4 5 6 7 7 6 5 4 2 2 3 2 1 4 7 7 5 4 5 7 4 4 6 5 7 9 11 11 10 18 27 31 30 26 26 29 29 28 29 28 27 29 31 31 31 32 34
12 13 13 14 13 14 14 15 15 16 15 14 13 13 12 10 9 8 6 5 5 6 5 3 3 4 4 5 6 7 9 9 9 9 9 8 6 3 5 7 7 7 8 10 10 7 6 5 3 3 5 4 4 4 6 6 5 4 4 6 5 6 9 10 9 10 13 11 15 29 35 31 28 28 30 31 31 29 28 29 31 33 34 34 35 36 38
11 12 13 14 14 14 14 15 15 16 17 17 15 13 12 11 10 9 7 5 3 3 3 3 3 5 4 4 6 9 10 11 10 9 8 9 8 8 8 9 10 10 11 12 11 9 8 7 5 4 5 4 4 4 6 7 8 7 5 8 13 12 11 11 11 12 12 11 21 33 32 26 30 35 34 34 35 34 33 36 38 38 39 39 39 42 44
11 12 13 14 15 15 16 16 16 16 17 18 16 12 11 10 10 9 8 6 4 1 2 3 4 5 4 5 7 9 11 13 14 12 10 10 11 12 12 11 11 12 11 10 10 9 7 5 5 6 6 5 4 5 7 7 6 5 4 9 15 12 9 10 10 9 8 10 20 26 19 16 25 33 33 34 36 35 36 39 40 39 40 41 43 46 46
12 12 13 14 15 16 16 16 17 17 17 17 16 12 10 10 11 10 9 8 6 2 1 5 7 6 4 5 6 7 9 13 17 17 13 11 13 15 15 13 12 13 11 9 8 6 6 6 5 5 5 5 5 6 6 5 2 0 1 8 13 11 9 11 9 7 9 16 24 25 19 19 26 31 32 35 35 35 37 39 39 39 42 43 44 46 46
12 12 13 13 14 15 16 17 17 17 17 17 15 11 8 10 13 12 10 9 8 3 3 6 7 4 3 3 4 6 7 11 17 19 15 14 15 15 15 15 15 14 13 11 9 7 8 9 8 7 8 6 3 4 4 4 2 1 3 8 12 11 12 13 12 11 15 20 25 27 26 28 31 32 34 35 35 36 39 40 40 42 45 45 45 47 48
12 12 12 13 14 15 16 17 17 17 17 16 15 11 7 9 13 12 9 9 8 3 1 3 3 2 4 4 5 7 8 12 18 19 17 15 15 15 16 17 16 15 14 13 10 7 8 8 7 9 12 11 6 3 4 4 2 3 7 11 14 15 15 16 15 16 18 22 26 28 29 31 32 32 34 35 37 40 42 42 43 45 46 46 46 46 47
12 12 12 13 14 15 16 16 16 17 16 16 14 10 5 7 10 11 8 7 7 4 1 2 3 4 5 3 5 6 9 15 20 21 19 17 16 18 19 18 17 15 13 12 10 8 7 7 6 6 7 7 6 4 3 5 5 2 12 17 18 19 21 21 20 21 23 26 29 30 30 30 31 33 35 38 41 44 43 42 44 46 46 45 44 43 43
12 12 13 13 14 15 15 15 16 16 15 14 14 11 8 8 9 9 7 6 6 3 0 2 3 3 2 2 3 5 12 19 21 22 22 19 19 21 21 19 18 17 13 10 9 6 5 7 7 6 6 5 5 3 4 4 4 7 16 19 19 22 25 25 25 27 28 30 32 31 29 31 34 35 39 43 44 43 42 43 45 46 45 46 45 44 43
11 12 13 13 14 15 14 14 14 14 14 15 14 13 12 10 9 7 6 4 4 4 3 3 2 1 1 2 2 7 17 22 21 21 23 21 21 22 22 20 18 14 10 8 7 5 4 4 4 5 5 5 4 3 3 2 4 10 16 19 21 25 27 27 29 30 30 31 31 29 29 34 38 40 42 44 43 42 43 45 47 46 46 47 48 48 46
11 12 12 13 14 14 13 13 13 13 14 15 13 12 12 10 8 7 5 2 2 4 6 6 3 1 2 2 1 7 20 23 17 16 19 20 21 21 18 16 12 7 6 6 5 5 5 4 3 3 3 3 3 3 2 5 11 15 18 21 25 28 29 29 30 32 34 35 35 33 34 38 41 41 42 42 42 43 46 47 48 48 48 49 49 50 50
11 12 12 13 14 13 12 12 13 14 15 14 12 11 10 8 7 8 6 4 3 4 6 8 5 2 3 3 1 8 22 22 15 15 16 17 19 19 13 9 5 3 4 5 5 3 2 3 3 3 0 3 2 1 3 9 16 19 22 25 28 29 29 29 31 34 37 39 39 37 38 41 43 44 44 45 47 49 51 50 50 50 50 50 51 52 53
11 12 12 12 13 12 11 11 13 15 14 13 11 9 7 7 7 8 9 9 8 7 6 6 5 3 5 3 2 12 22 18 14 18 18 12 13 15 10 5 3 3 4 4 3 2 3 4 3 2 1 1 1 3 6 11 18 21 24 26 27 28 28 30 33 36 38 40 41 39 40 43 45 46 47 50 52 53 52 51 50 50 51 53 55 56 56
11 12 12 12 13 11 10 12 15 15 13 11 9 7 6 6 6 7 8 10 11 11 10 8 5 4 6 3 5 14 18 12 11 15 12 7 9 11 7 3 3 4 5 3 3 3 4 4 4 3 2 2 5 6 9 15 19 21 23 25 27 29 30 31 34 37 38 41 42 42 45 48 49 49 51 53 55 54 52 50 50 51 52 54 56 57 57
11 12 12 12 12 10 10 12 15 14 12 8 6 5 5 4 4 4 6 8 8 10 13 10 5 5 6 4 8 15 14 9 10 10 5 6 9 7 2 2 4 4 4 2 1 2 4 2 2 2 1 6 8 6 15 20 19 20 22 25 28 30 32 34 37 39 39 42 44 46 49 51 51 53 55 56 57 56 54 53 53 55 55 56 57 57 57
12 13 12 12 11 10 10 12 13 11 8 6 4 4 4 4 3 3 6 6 5 8 11 9 6 6 7 6 11 16 14 10 9 6 4 7 7 3 2 4 4 3 4 3 1 4 4 2 1 1 1 6 3 11 20 21 21 23 26 28 31 33 37 41 43 42 43 45 47 50 52 52 51 54 56 57 58 59 59 59 59 60 59 58 58 58 58
12 12 12 11 11 11 11 11 11 8 5 4 4 3 4 6 6 4 5 4 4 6 8 7 5 7 10 9 10 12 13 12 8 6 7 8 6 3 3 4 3 4 4 3 2 6 4 2 1 1 1 3 5 15 21 25 28 31 33 35 38 41 45 49 50 48 49 51 51 52 53 53 52 54 56 57 57 58 60 61 61 60 60 60 60 59 59
12 12 11 11 11 11 11 10 9 6 3 2 3 4 4 5 6 5 4 2 2 4 8 9 7 7 13 14 9 9 13 14 10 7 7 6 4 4 4 3 3 3 3 2 5 6 3 3 3 1 2 4 12 19 24 30 36 39 41 44 48 49 50 51 51 51 52 53 52 53 53 53 53 53 54 55 56 57 58 59 59 59 60 61 60 60 59
12 11 11 11 10 9 8 7 6 5 3 2 3 3 2 2 3 4 4 3 2 4 8 9 8 11 16 15 11 11 13 13 8 5 4 4 4 4 3 2 3 2 2 4 7 4 2 3 4 0 4 10 18 23 28 36 43 46 47 49 51 51 51 51 52 53 54 54 54 54 54 53 54 54 55 56 58 57 57 58 59 60 61 61 60 60 59
11 11 11 9 8 7 6 5 5 5 3 3 3 2 2 2 2 1 2 2 3 5 6 10 14 16 15 13 13 13 11 9 6 4 4 5 5 4 1 1 1 2 4 6 4 2 3 4 3 1 8 16 22 30 39 46 49 49 50 51 52 51 51 52 54 56 56 56 55 55 55 54 55 56 57 57 58 58 59 60 60 60 60 60 60 59 58
11 11 10 7 5 5 4 3 5 4 2 2 2 2 1 2 1 0 1 3 4 5 8 13 15 13 12 14 15 11 6 5 5 4 4 5 4 2 0 1 2 4 6 5 2 3 4 3 1 6 16 24 32 41 50 51 49 49 51 52 52 52 53 55 57 57 58 58 57 57 56 57 57 58 58 58 59 60 61 62 61 60 59 59 59 59 59
11 10 8 5 4 6 4 2 3 4 2 1 2 2 0 2 1 1 2 5 6 8 11 14 15 14 15 16 12 5 3 5 5 4 3 4 2 1 1 2 3 4 4 3 2 3 4 3 5 14 23 31 40 48 51 50 49 50 51 52 53 54 56 58 59 58 57 57 57 57 58 58 58 58 58 59 60 61 61 62 61 60 59 59 60 61 61
9 9 6 2 2 5 4 1 1 2 2 1 1 1 0 2 2 2 5 7 9 9 11 14 16 16 15 11 6 4 5 6 4 3 3 4 2 2 3 4 3 2 2 3 3 4 4 6 13 23 31 38 45 49 49 49 50 51 50 51 54 57 59 59 59 58 57 57 59 60 60 59 59 59 59 61 62 62 62 63 62 61 60 61 61 62 62
7 7 5 2 1 3 3 1 1 1 3 3 2 1 1 3 4 5 7 9 9 9 12 15 16 14 10 7 4 4 4 3 2 3 3 2 3 3 5 3 2 2 2 3 5 4 6 12 22 31 38 44 47 48 49 51 51 50 50 53 56 59 60 61 60 59 58 59 62 63 62 62 62 62 62 63 63 63 63 64 63 63 63 62 61 60 60
6 6 4 1 1 2 2 1 2 3 4 4 3 1 2 4 5 6 8 8 8 10 13 14 13 9 6 4 3 3 2 2 2 2 2 2 3 4 3 2 2 2 2 3 4 6 12 22 32 39 43 46 47 48 50 51 50 51 53 55 57 59 61 61 60 60 60 62 64 64 63 64 64 64 63 64 64 65 65 65 66 66 63 61 59 59 59
5 4 3 4 3 2 2 3 3 2 2 2 1 2 5 6 7 7 8 8 9 12 13 12 8 5 4 3 3 2 1 1 1 2 3 2 3 2 1 3 4 3 2 3 9 16 24 32 39 44 46 47 48 49 51 52 53 55 57 58 58 59 60 61 61 62 63 64 64 64 65 66 65 64 64 65 65 66 67 67 66 64 61 59 58 59 59
5 4 4 3 2 2 4 4 2 1 2 2 2 4 6 7 8 9 8 9 11 12 11 8 5 3 3 2 1 0 0 1 1 2 2 2 1 1 2 4 4 4 8 14 22 29 34 38 42 44 46 48 49 51 52 54 56 59 60 60 59 60 61 63 64 64 64 65 67 68 67 66 64 64 65 65 65 67 67 65 62 60 60 60 59 59 59
4 3 4 3 2 3 4 2 1 1 1 0 3 5 7 9 9 9 10 11 12 10 6 4 3 3 2 2 1 1 2 1 1 1 2 2 1 0 2 5 6 11 20 27 32 37 40 41 43 46 49 51 52 53 55 57 59 61 61 61 61 61 63 65 66 66 67 69 70 69 68 68 68 67 66 64 64 65 64 61 59 59 61 62 60 58 56
3 3 2 2 2 3 2 1 1 0 1 3 5 7 8 9 10 10 12 11 9 6 3 2 2 2 1 2 3 3 3 2 1 2 2 2 4 4 4 10 17 24 30 33 35 39 42 43 45 47 51 53 55 56 58 59 59 60 61 62 63 62 63 66 67 68 68 69 70 71 71 70 68 65 63 62 61 60 59 60 62 62 61 60 59 56 52
Wind_Direction
45 52 55 56 63 70 78 89 95 97 99 102 103 93 80 75 68 75 101 100 87 87 80 43 49 61 72 75 53 54 42 8 10 11 10 8 331 342 60 10 6 32 8 329 335 354 318 279 342 332 312 22 17 338 338 334 312 293 276 83 43 340 271 284 292 286 282 115 111 99 92 183 248 258 240 248 280 294 284 290 319 303 278 273 270 263 271
42 49 56 58 60 68 81 91 98 98 98 98 97 92 84 75 66 60 64 95 88 80 76 91 87 82 117 101 63 53 53 28 16 16 17 15 336 338 29 24 5 10 342 311 326 353 349 246 14 344 309 347 13 343 349 335 332 341 336 357 4 334 282 312 316 313 322 6 83 72 2 286 312 306 246 199 201 83 295 273 263 258 262 264 269 273 276
43 44 52 59 61 67 76 90 102 102 105 103 97 94 89 78 64 54 54 79 96 81 77 102 109 123 125 96 45 29 58 36 26 28 16 15 0 338 7 6 334 323 294 271 279 326 337 326 28 349 299 292 210 338 329 222 328 352 338 338 343 303 291 311 315 325 333 328 331 337 326 320 315 302 273 207 178 173 230 281 270 260 272 271 264 267 279
46 44 48 54 59 65 72 83 91 102 128 128 108 96 89 79 69 53 55 71 78 76 78 86 99 124 121 86 25 9 42 31 17 25 26 18 14 345 347 338 295 284 311 305 288 229 214 294 345 306 299 333 81 337 328 263 276 326 324 341 336 289 273 255 252 275 297 300 302 308 315 312 298 292 290 274 168 169 227 276 269 281 299 286 270 274 287
48 48 48 49 54 59 65 74 83 100 124 129 113 100 92 76 59 31 53 66 66 65 62 53 57 75 42 62 18 5 28 30 0 26 38 15 7 327 333 11 352 345 346 332 323 327 293 223 1 303 295 323 295 317 352 312 278 309 343 347 320 282 280 257 228 246 263 278 288 293 299 291 280 284 292 291 204 157 185 232 253 285 305 282 279 292 295
49 51 51 50 53 57 61 65 71 92 115 133 121 94 83 86 83 73 90 80 40 48 51 40 50 59 53 91 61 6 36 42 5 8 347 355 12 350 109 40 25 5 342 324 329 339 329 277 304 321 312 324 298 251 92 217 282 22 332 288 325 288 287 333 149 246 260 271 279 280 278 273 269 269 280 286 272 194 187 226 247 259 260 260 277 291 292
52 53 56 56 56 59 65 68 71 79 89 119 121 101 95 105 101 79 86 92 79 83 72 56 64 57 45 79 55 14 34 44 36 353 307 331 44 9 2 14 9 6 341 314 331 349 344 317 318 358 321 309 295 279 272 165 147 64 246 239 311 275 282 57 49 271 267 265 266 264 259 263 268 269 271 277 276 250 220 234 248 246 245 253 268 279 282
55 55 58 62 62 64 69 71 71 77 91 110 109 104 107 116 114 105 101 92 73 67 58 49 79 53 23 59 47 350 15 31 36 5 342 12 31 10 359 348 344 344 306 298 327 7 354 311 299 343 327 311 306 301 332 32 217 258 259 24 177 267 331 53 332 292 288 279 270 257 253 260 273 282 280 278 283 278 253 237 243 246 250 256 264 272 275
59 57 59 62 64 67 72 76 75 78 99 110 101 101 108 114 119 119 111 89 29 43 45 11 78 58 22 41 48 344 16 14 353 20 46 34 9 358 348 335 330 306 227 281 325 358 338 294 284 283 273 287 311 315 337 359 333 299 326 346 229 265 295 324 324 306 300 313 329 316 294 281 272 272 277 284 290 289 278 249 218 218 252 273 278 277 280
61 60 62 63 65 67 72 79 81 79 87 96 98 105 112 114 119 116 107 93 12 23 37 0 57 73 16 13 3 352 19 3 315 314 76 56 359 347 336 323 319 298 282 323 319 315 306 288 282 277 265 269 281 280 285 304 300 293 320 306 246 314 301 306 336 312 290 312 328 317 302 297 285 264 280 293 290 283 283 274 214 212 245 277 282 281 295
62 62 63 65 66 67 69 76 81 79 74 78 91 106 113 117 120 109 98 92 27 7 24 33 59 95 314 344 327 335 5 345 317 9 33 33 346 345 346 328 316 311 313 323 319 314 310 301 290 279 266 266 269 271 278 277 251 245 262 284 297 314 285 291 325 296 289 310 320 311 300 312 338 335 302 278 278 282 290 291 270 259 267 269 266 279 300
62 62 65 67 68 69 70 72 76 76 71 69 83 99 106 112 116 107 98 99 48 19 49 55 63 101 174 205 241 319 343 312 257 251 333 329 332 348 2 0 323 316 316 321 322 320 317 313 295 252 230 247 257 257 264 261 243 229 235 257 288 281 268 278 290 261 279 303 317 316 320 331 319 315 310 281 278 286 290 288 282 281 287 281 276 286 301
63 64 66 69 70 70 70 71 74 75 73 69 77 90 97 100 101 102 103 101 78 43 88 101 111 102 105 140 212 306 358 353 248 223 262 294 312 338 356 354 325 315 320 324 325 322 310 294 247 195 181 193 222 224 226 237 234 219 219 225 241 268 278 284 275 258 274 302 314 298 302 306 301 299 309 39 282 286 295 292 283 287 296 292 286 292 302
64 66 68 71 71 71 72 73 74 74 74 72 73 81 89 91 87 96 104 104 100 113 111 112 128 125 114 92 197 235 327 0 275 232 249 282 301 326 343 346 337 329 334 335 331 320 301 311 322 307 251 198 241 240 208 221 221 218 218 211 219 243 266 289 282 258 263 298 298 284 291 298 294 287 191 108 312 308 312 297 289 296 298 280 276 298 308
65 67 69 71 72 73 74 75 74 73 73 70 69 75 82 83 81 87 102 110 119 137 128 125 143 137 123 61 68 248 275 37 283 266 243 271 313 346 348 349 350 350 353 350 338 318 328 341 345 334 329 331 317 297 277 237 197 200 221 222 220 230 242 278 291 266 261 294 298 298 299 296 300 356 86 97 49 3 246 278 293 307 314 279 290 306 317
65 67 68 69 71 73 74 75 73 72 72 70 69 75 79 80 84 88 98 109 115 125 163 156 148 137 119 76 67 28 341 353 332 294 212 195 14 359 351 354 0 3 1 355 318 325 352 355 343 325 310 311 307 294 295 304 293 188 197 220 225 232 246 265 267 264 271 281 280 285 283 273 288 318 75 103 67 77 217 280 293 335 2 316 309 314 319
61 66 68 68 68 70 73 75 75 73 72 70 70 76 80 81 82 82 92 102 101 107 150 157 152 138 117 80 57 46 5 348 350 323 286 32 30 357 351 353 1 9 7 360 303 336 356 350 329 304 276 248 297 295 302 313 303 271 203 215 213 210 221 224 235 252 255 248 262 277 269 264 283 311 1 84 94 170 270 287 304 6 341 329 328 326 322
59 63 67 68 69 69 70 74 76 76 74 70 69 75 79 81 81 81 93 101 97 104 158 151 137 129 106 65 34 101 47 352 357 319 304 36 39 353 349 354 3 8 7 359 344 353 350 328 323 301 279 168 158 285 308 324 300 289 297 290 265 211 197 214 243 266 259 248 257 265 267 274 293 328 358 2 267 277 286 298 324 336 331 328 329 330 331
56 60 64 68 68 67 66 66 69 75 77 73 70 73 76 79 83 84 87 98 103 120 152 144 128 128 120 103 92 89 51 23 14 344 329 73 5 342 341 26 31 4 350 336 338 352 327 300 265 283 278 251 191 300 304 290 272 291 307 302 289 259 198 217 245 260 251 245 260 276 280 291 320 340 337 310 296 305 310 314 320 325 329 334 339 343 350
52 53 57 60 61 61 61 59 59 65 74 76 70 69 75 77 79 84 85 96 111 121 137 142 129 123 118 101 76 58 37 28 23 12 14 10 344 336 324 104 15 356 339 338 348 4 318 308 304 262 276 280 332 328 294 274 269 277 283 283 281 263 269 278 268 264 278 264 258 278 289 23 33 345 302 299 318 324 330 330 329 336 347 352 352 352 355
46 45 47 49 50 51 50 49 49 48 59 74 73 66 73 77 76 80 80 87 111 119 130 140 128 114 107 92 75 67 55 40 31 27 22 0 354 357 358 312 348 352 353 343 334 255 263 304 301 274 278 286 293 281 289 295 291 271 246 269 280 188 222 290 301 325 310 284 268 293 299 315 328 323 321 339 346 352 357 354 348 352 356 356 352 349 348
42 40 40 39 38 39 36 35 39 35 36 57 67 62 70 81 80 78 72 68 101 114 122 133 125 110 105 97 81 73 68 58 45 34 24 11 15 25 30 323 327 331 326 309 284 271 277 273 277 286 281 278 271 271 281 291 292 292 149 237 254 199 180 308 314 291 276 274 278 287 295 310 325 335 349 359 1 6 8 0 351 350 351 349 344 340 338
38 37 37 34 30 30 29 26 28 29 25 34 48 53 59 69 74 75 69 64 89 106 116 125 119 108 105 97 83 74 64 51 41 34 30 29 28 19 13 357 301 289 264 233 242 273 281 272 288 299 285 278 282 280 275 263 267 279 246 235 252 263 302 333 290 276 275 276 284 300 319 333 343 354 7 8 2 0 360 355 349 344 341 339 337 333 331
32 32 33 32 28 25 23 21 21 22 21 23 30 37 40 44 53 64 65 62 81 101 114 118 110 111 109 90 72 58 48 43 40 35 32 33 37 9 292 296 296 273 252 250 256 261 267 272 282 282 270 253 224 275 277 265 263 286 283 268 277 12 15 331 285 289 294 288 315 347 348 345 347 352 358 358 353 350 350 347 341 335 332 331 329 326 324
28 29 27 27 27 24 22 20 19 17 17 17 17 20 25 30 31 31 37 51 72 95 109 109 113 130 124 90 64 51 42 38 32 27 23 21 18 339 295 299 298 276 266 272 271 256 251 256 244 249 267 243 211 250 273 268 279 309 305 300 323 358 347 324 311 310 303 306 352 357 346 341 347 347 343 343 343 341 340 338 334 331 328 327 325 323 322
24 25 23 21 22 21 20 19 18 17 18 16 12 7 10 21 25 21 21 27 41 80 100 110 139 145 129 86 65 56 46 35 25 16 9 3 358 341 317 305 298 289 282 281 275 257 247 254 253 257 265 233 205 252 274 282 303 307 300 329 340 333 321 324 331 324 308 319 352 352 343 339 343 340 336 338 337 334 333 332 330 327 327 325 323 322 320
20 20 19 19 17 16 16 16 15 15 16 15 12 8 6 15 21 20 19 16 11 54 102 124 152 152 127 90 79 67 50 36 23 10 356 349 347 340 326 308 296 292 289 285 276 258 242 249 251 243 248 250 252 265 266 280 309 306 297 348 358 353 339 342 340 329 323 338 345 344 337 328 329 329 329 330 329 326 327 327 325 324 324 322 320 319 318
18 16 15 14 13 12 11 12 12 12 12 11 13 14 14 16 19 19 19 18 12 7 141 139 142 140 118 97 84 59 38 23 12 5 356 344 339 336 329 316 299 292 287 277 267 249 231 238 249 244 247 258 268 262 247 250 294 320 357 9 16 16 4 359 351 326 324 331 331 330 323 311 314 319 322 323 323 324 323 322 321 320 320 319 318 316 314
15 13 11 10 10 9 7 7 8 8 8 10 13 15 15 16 17 17 16 17 20 37 125 134 133 130 118 106 62 21 11 3 358 357 352 343 338 336 331 320 305 295 286 273 261 257 255 255 257 255 247 242 266 290 269 265 288 74 65 29 26 23 8 359 349 326 319 324 324 321 314 307 309 316 320 321 322 323 321 319 319 319 319 319 317 314 313
9 9 8 6 5 4 4 5 4 3 5 8 10 9 5 8 13 14 14 12 11 12 142 142 126 116 120 100 38 13 5 355 352 352 350 344 339 336 331 322 309 297 287 275 263 263 270 269 264 258 251 244 246 283 302 292 273 84 53 24 14 10 0 351 343 330 320 321 321 318 312 308 308 314 318 320 322 323 321 319 318 318 318 318 316 314 315
4 4 3 2 2 1 1 2 1 3 6 10 11 12 2 351 360 8 10 2 355 343 251 132 97 109 116 76 28 16 0 351 350 351 349 344 340 336 332 324 313 300 288 274 266 266 267 260 255 263 264 250 235 248 307 297 264 342 15 8 1 357 349 341 336 330 324 322 323 320 316 316 318 321 322 323 323 322 319 318 318 318 318 318 316 315 316
1 1 359 359 359 359 359 0 1 3 6 8 13 21 20 3 2 9 4 350 346 348 40 115 91 106 116 33 17 4 352 350 351 350 347 343 340 337 333 327 317 305 290 273 264 264 258 244 249 273 281 246 225 249 297 291 283 339 357 353 347 346 342 336 332 330 328 328 328 324 322 325 326 325 323 322 322 321 320 319 321 321 319 319 319 318 318
358 357 357 357 357 357 359 2 3 4 5 5 10 17 17 11 11 11 360 345 356 19 55 83 78 82 38 11 355 351 353 352 350 346 343 340 339 335 329 323 318 306 287 267 248 252 275 263 255 280 270 225 220 267 284 308 346 349 349 345 342 340 336 331 329 328 328 331 332 327 321 323 324 324 322 322 322 323 323 322 322 321 321 321 321 321 320
356 356 356 357 358 357 358 1 2 2 2 4 9 13 14 15 20 17 11 7 26 48 63 65 66 58 348 340 268 351 356 353 345 339 337 333 333 332 322 314 312 297 268 262 247 252 283 279 258 276 263 199 208 250 289 16 4 349 341 341 339 335 330 327 330 332 331 332 331 326 322 322 323 324 325 325 324 325 325 324 322 322 321 321 320 320 321
356 356 356 358 358 356 356 359 0 0 1 5 10 14 19 31 35 32 37 42 46 72 69 55 61 65 348 327 224 348 350 345 334 330 328 321 324 329 322 306 298 261 250 268 264 253 265 264 266 284 215 148 176 241 0 4 353 343 336 334 334 333 330 328 329 330 329 328 327 325 325 326 326 327 328 328 327 327 326 324 322 321 321 320 319 320 320
357 356 356 357 355 351 351 354 356 357 1 5 11 22 42 61 59 57 61 58 60 80 75 55 69 58 353 312 271 339 343 337 326 328 327 317 319 327 323 300 278 264 262 263 254 250 260 259 263 273 223 167 83 61 28 354 340 335 332 329 329 331 329 327 327 326 325 325 325 326 328 329 328 328 328 327 326 326 324 322 322 322 321 320 320 320 319
357 356 355 354 351 349 350 350 352 357 1 6 20 47 70 74 73 74 65 58 63 70 66 71 90 47 5 312 293 332 338 335 329 330 326 314 317 319 309 286 302 313 302 270 236 259 275 253 243 276 304 113 107 74 19 349 336 331 328 326 329 330 328 328 328 327 325 327 328 329 330 331 329 327 326 325 325 324 323 321 321 321 320 320 320 320 319
358 356 352 349 349 349 348 347 349 355 0 8 36 73 73 63 72 60 38 42 55 52 50 63 78 30 9 336 322 336 340 331 325 328 326 324 327 322 294 292 323 328 315 286 248 302 294 239 210 306 332 131 119 38 357 345 336 330 328 327 329 332 332 331 332 331 330 331 331 331 330 329 326 325 325 324 324 323 322 321 321 322 321 320 320 319 318
359 353 347 346 347 346 345 346 349 355 5 22 51 70 45 31 32 19 17 28 38 33 38 53 59 28 11 332 323 337 345 332 315 314 325 328 329 336 341 334 346 346 306 289 13 356 316 235 163 323 183 146 101 356 350 346 339 335 335 333 332 334 335 335 335 334 332 329 327 326 326 325 324 324 324 323 322 322 321 321 321 321 321 320 319 318 318
353 348 344 344 343 341 343 348 353 359 14 38 51 52 40 35 33 21 9 19 43 38 29 25 16 6 358 338 320 330 341 336 316 300 311 311 300 294 314 327 358 348 296 272 15 3 326 260 255 305 145 116 4 345 346 346 342 340 339 338 337 336 336 336 334 332 329 326 324 323 324 324 323 322 322 321 320 319 319 319 320 319 319 319 318 317 316
350 346 341 337 337 339 344 351 358 6 18 35 39 40 36 30 28 23 14 22 58 30 12 9 6 349 341 335 319 309 322 326 313 291 295 295 279 278 292 311 345 328 268 269 354 351 310 253 275 279 100 27 350 342 342 342 342 341 341 341 340 337 334 332 330 327 326 325 323 322 323 323 323 322 321 320 319 317 316 317 317 317 317 317 316 316 316
347 339 333 330 333 339 346 353 1 6 12 34 47 43 26 15 23 26 30 39 29 5 5 6 350 328 325 327 319 306 312 321 319 299 286 292 302 299 294 327 350 306 255 317 339 332 239 263 282 173 52 6 349 345 344 341 340 340 339 338 337 333 329 327 326 324 324 324 322 322 323 322 322 321 320 318 317 316 316 316 315 315 316 316 316 315 315
341 334 331 331 338 349 357 4 11 17 29 45 45 29 14 24 38 20 5 21 23 13 5 352 338 330 329 333 330 318 310 316 321 303 278 292 317 331 337 351 333 285 297 320 323 266 260 286 282 34 11 354 347 346 343 339 337 336 335 333 331 328 326 325 324 323 324 324 322 322 322 322 321 321 320 318 317 316 316 316 316 315 316 316 316 315 316
338 335 332 328 341 356 353 349 8 25 44 43 37 40 19 11 23 266 319 6 19 8 350 341 337 330 325 328 328 321 312 323 323 294 279 299 318 338 14 295 309 314 313 310 276 251 279 287 342 2 353 349 346 343 339 336 333 331 330 329 328 326 326 325 323 322 323 323 323 322 322 321 320 320 319 318 317 316 315 316 316 316 316 317 316 316 316
341 340 337 332 353 7 5 354 20 38 54 35 35 61 32 326 335 309 315 334 345 342 336 335 333 322 316 323 327 312 296 321 312 279 304 335 326 228 261 301 315 322 312 289 275 297 295 305 354 351 346 345 341 337 333 330 329 328 327 326 326 326 325 323 322 322 321 321 321 321 321 320 319 319 318 318 317 317 316 316 316 317 317 317 317 316 317
346 349 355 357 3 11 20 26 3 31 72 109 74 78 138 280 289 298 310 323 334 336 330 329 326 319 317 324 325 284 292 318 304 269 314 331 273 258 316 321 305 301 289 276 292 304 301 326 342 342 338 336 334 330 328 326 326 326 325 323 323 324 323 322 320 320 320 320 320 320 319 319 318 318 317 317 316 316 316 316 316 317 318 317 317 316 317
346 348 357 13 13 17 30 55 52 81 117 135 139 137 213 275 295 314 323 327 333 336 331 328 327 323 318 319 310 290 303 330 305 286 314 306 269 303 337 327 279 267 280 282 293 306 322 332 334 332 330 330 328 326 324 324 324 324 323 322 321 322 322 320 319 319 320 320 319 319 318 318 318 317 317 316 316 316 317 317 317 318 318 317 316 317 317
351 346 356 50 84 7 11 94 121 125 136 143 146 171 296 309 323 335 335 332 334 337 335 333 331 325 315 312 305 296 307 316 295 303 0 339 301 315 333 308 281 271 221 240 286 317 326 328 327 325 325 325 324 323 322 323 323 322 322 321 321 321 320 319 318 318 318 319 318 318 317 318 317 317 316 316 316 316 318 318 318 319 318 318 318 319 320
357 359 38 91 92 70 120 131 125 131 156 153 136 320 319 327 339 342 335 332 336 339 338 336 329 313 304 310 308 288 279 281 298 352 0 326 292 299 306 290 294 289 255 292 320 322 320 321 323 322 321 322 322 322 321 322 322 321 321 320 320 320 319 318 317 317 318 318 317 317 317 317 317 317 317 316 316 317 318 319 319 319 319 320 321 321 321
10 28 62 78 74 116 145 145 140 172 187 193 313 325 325 330 336 336 331 331 337 343 346 346 341 323 315 321 324 283 233 241 282 318 313 274 228 280 282 267 269 296 313 318 320 318 316 318 321 321 320 320 321 321 321 321 321 321 320 320 320 319 318 317 317 317 317 318 317 317 317 317 317 317 316 316 316 317 318 318 319 320 321 321 321 322 322
22 48 68 70 87 134 147 149 166 168 164 283 324 326 324 325 327 326 323 328 340 351 3 8 359 342 324 318 317 303 303 298 268 274 279 259 190 194 268 270 292 310 312 313 315 316 317 318 320 320 319 319 320 320 320 321 321 320 320 320 320 319 318 318 318 318 318 319 319 319 318 318 318 318 317 317 318 318 318 319 320 322 322 322 322 322 322
44 66 69 74 120 143 139 12 357 42 350 333 327 323 321 319 316 314 316 326 344 2 7 349 341 331 313 326 338 329 317 306 283 273 269 220 178 186 256 294 307 309 309 309 313 315 317 318 318 318 318 318 319 320 321 321 321 320 320 319 319 319 319 319 319 319 319 320 320 319 319 319 319 320 320 320 320 320 320 320 322 323 323 322 323 323 323